Tracking 19638 objects as of 21-Apr-2019
HD Live streaming from Space Station
objects crossing your sky now

ANIK C1 R/B(PAM-D)

Track ANIK C1 R/B(PAM-D) now!


NORAD ID: 15644
Int'l Code: 1985-028D
Perigee: 337.0 km
Apogee: 30,315.9 km
Inclination: 23.3 °
Period: 530.1 minutes
Semi major axis: 21697 km
RCS: 2.9686 m2 (large)
Launch date: April 12, 1985
Source: United States (US)
Launch site: AIR FORCE EASTERN TEST RANGE (AFETR)

Note: This is a ROCKET BODY
aabbcc
Your satellite tracking list
Your tracking list is empty




NASA's NSSDC Master Catalog

Two Line Element Set (TLE):
1 15644U 85028D   19110.66012150 -.00000266  00000-0  14619-3 0  9995
2 15644  23.2784 305.3295 6908380 321.0684   5.3407  2.71637481314807
Source of the keplerian elements: AFSPC